Overview Statistics Trail Chart Weather Telemetry Raw packets
 

This is the latest recevied weather packets stored in our database for station/object NR0A-4. If no packets are shown the sender has not sent any weather packets the latest 10 day(s).

<< 39 40 41 42 43 44 45 >>
Time Temp. Humidity Pressure Rain* Wind** Luminosity Snow
1788392104 31.67° C 61% 1008.9 hPa 0 mm - 54 W/m² -
1788391804 31.67° C 62% 1009 hPa 0 mm - 56 W/m² -
1788391504 31.67° C 61% 1009 hPa 0 mm - 58 W/m² -
1788391204 31.67° C 61% 1009.1 hPa 0 mm - 62 W/m² -
1788390904 31.67° C 61% 1009.1 hPa 0 mm - 63 W/m² -
1788390604 32.22° C 61% 1009.1 hPa 0 mm - 69 W/m² -
1788390304 32.22° C 60% 1009.2 hPa 0 mm - 76 W/m² -
1788390004 32.22° C 60% 1009.2 hPa 0 mm - 204 W/m² -
1788389704 32.22° C 60% 1009.2 hPa 0 mm - 278 W/m² -
1788389404 32.22° C 58% 1009.3 hPa 0 mm - 295 W/m² -
1788389104 32.22° C 58% 1009.2 hPa 0 mm - 309 W/m² -
1788388804 32.78° C 59% 1009.3 hPa 0 mm - 320 W/m² -
1788388504 32.78° C 60% 1009.3 hPa 0 mm - 334 W/m² -
1788388205 32.78° C 60% 1009.3 hPa 0 mm - 360 W/m² -
1788387904 32.78° C 60% 1009.4 hPa 0 mm - 362 W/m² -
1788387605 32.78° C 61% 1009.3 hPa 0 mm - 380 W/m² -
1788387304 32.78° C 58% 1009.3 hPa 0 mm - 394 W/m² -
1788387004 33.33° C 58% 1009.2 hPa 0 mm - 425 W/m² -
1788386704 33.33° C 58% 1009.2 hPa 0 mm - 425 W/m² -
1788386404 33.33° C 56% 1009.4 hPa 0 mm - 432 W/m² -
1788386104 33.33° C 57% 1009.4 hPa 0 mm - 436 W/m² -
1788385804 32.78° C 58% 1009.3 hPa 0 mm - 461 W/m² -
1788385504 32.78° C 57% 1009.4 hPa 0 mm - 536 W/m² -
1788385205 32.78° C 54% 1009.4 hPa 0 mm - 536 W/m² -
1788384904 33.33° C 53% 1009.5 hPa 0 mm - 172 W/m² -

* Rain latest hour (hover to see other rain measurements)
** Current wind speed in m/s (hover to see current wind gust speed)